owner,sensor,date,latitude,longitude,vertical_datum,sea_water_temperature,qcFlag
BP,ioos:station:wmo:42374:1,2020-07-01T00:09:00Z,28.8662,-88.0563,1.6,28.2,11111222
BP,ioos:station:wmo:42374:1,2020-07-01T00:29:00Z,28.8662,-88.0563,1.4,28.2,11111222
BP,ioos:station:wmo:42374:1,2020-07-01T00:49:00Z,28.8662,-88.0563,1.5,28.2,11111222
BP,ioos:station:wmo:42374:1,2020-07-01T01:09:00Z,28.8662,-88.0563,1.5,28.2,11111222
BP,ioos:station:wmo:42374:1,2020-07-01T01:29:00Z,28.8662,-88.0563,1.6,28.3,11111222
BP,ioos:station:wmo:42374:1,2020-07-01T01:49:00Z,28.8662,-88.0563,1.5,28.2,11111222
BP,ioos:station:wmo:42374:1,2020-07-01T02:09:00Z,28.8662,-88.0563,1.5,28.2,11111222
BP,ioos:station:wmo:42374:1,2020-07-01T02:29:00Z,28.8662,-88.0563,1.6,28.2,11111222
BP,ioos:station:wmo:42374:1,2020-07-01T02:49:00Z,28.8662,-88.0563,1.7,28.2,11111222
BP,ioos:station:wmo:42374:1,2020-07-01T03:09:00Z,28.8662,-88.0563,1.6,28.2,11111222
BP,ioos:station:wmo:42374:1,2020-07-01T03:29:00Z,28.8662,-88.0563,1.7,28.2,11111222
BP,ioos:station:wmo:42374:1,2020-07-01T03:49:00Z,28.8662,-88.0563,1.6,28.2,11111222
BP,ioos:station:wmo:42374:1,2020-07-01T04:09:00Z,28.8662,-88.0563,1.7,28.3,11111222
BP,ioos:station:wmo:42374:1,2020-07-01T04:29:00Z,28.8662,-88.0563,1.6,28.3,11111222
BP,ioos:station:wmo:42374:1,2020-07-01T04:49:00Z,28.8662,-88.0563,1.6,28.3,11111222
BP,ioos:station:wmo:42374:1,2020-07-01T05:09:00Z,28.8662,-88.0563,1.8,28.2,11111222
BP,ioos:station:wmo:42374:1,2020-07-01T05:29:00Z,28.8662,-88.0563,1.8,28.3,11111222
BP,ioos:station:wmo:42374:1,2020-07-01T05:49:00Z,28.8662,-88.0563,1.5,28.3,11111222
BP,ioos:station:wmo:42374:1,2020-07-01T06:09:00Z,28.8662,-88.0563,1.7,28.2,11111222
BP,ioos:station:wmo:42374:1,2020-07-01T06:29:00Z,28.8662,-88.0563,1.5,28.2,11111222
BP,ioos:station:wmo:42374:1,2020-07-01T06:49:00Z,28.8662,-88.0563,1.7,28.2,11111222
BP,ioos:station:wmo:42374:1,2020-07-01T07:09:00Z,28.8662,-88.0563,1.8,28.2,11111222
BP,ioos:station:wmo:42374:1,2020-07-01T07:29:00Z,28.8662,-88.0563,1.7,28.2,11111222
BP,ioos:station:wmo:42374:1,2020-07-01T07:49:00Z,28.8662,-88.0563,1.7,28.2,11111222
BP,ioos:station:wmo:42374:1,2020-07-01T08:09:00Z,28.8662,-88.0563,1.7,28.2,11111222
BP,ioos:station:wmo:42374:1,2020-07-01T08:29:00Z,28.8662,-88.0563,1.9,28.2,11111222
BP,ioos:station:wmo:42374:1,2020-07-01T08:49:00Z,28.8662,-88.0563,1.7,28.2,11111222
BP,ioos:station:wmo:42374:1,2020-07-01T09:09:00Z,28.8662,-88.0563,1.7,28.2,11111222
BP,ioos:station:wmo:42374:1,2020-07-01T09:29:00Z,28.8662,-88.0563,1.7,28.2,11111222
BP,ioos:station:wmo:42374:1,2020-07-01T09:49:00Z,28.8662,-88.0563,1.7,28.2,11111222
BP,ioos:station:wmo:42374:1,2020-07-01T10:09:00Z,28.8662,-88.0563,1.7,28.2,11111222
BP,ioos:station:wmo:42374:1,2020-07-01T10:29:00Z,28.8662,-88.0563,1.7,28.2,11111222
BP,ioos:station:wmo:42374:1,2020-07-01T10:49:00Z,28.8662,-88.0563,1.6,28.3,11111222
BP,ioos:station:wmo:42374:1,2020-07-01T11:09:00Z,28.8662,-88.0563,1.7,28.3,11111222
BP,ioos:station:wmo:42374:1,2020-07-01T11:29:00Z,28.8662,-88.0563,1.8,28.3,11111222
BP,ioos:station:wmo:42374:1,2020-07-01T11:49:00Z,28.8662,-88.0563,1.7,28.3,11111222
BP,ioos:station:wmo:42374:1,2020-07-01T12:09:00Z,28.8662,-88.0563,1.7,28.3,11111222
BP,ioos:station:wmo:42374:1,2020-07-01T12:29:00Z,28.8662,-88.0563,1.8,28.3,11111222
BP,ioos:station:wmo:42374:1,2020-07-01T12:49:00Z,28.8662,-88.0563,1.8,28.3,11111222
BP,ioos:station:wmo:42374:1,2020-07-01T13:09:00Z,28.8662,-88.0563,1.7,28.3,11111222
BP,ioos:station:wmo:42374:1,2020-07-01T13:29:00Z,28.8662,-88.0563,1.7,28.3,11111222
BP,ioos:station:wmo:42374:1,2020-07-01T13:49:00Z,28.8662,-88.0563,1.7,28.3,11111222
BP,ioos:station:wmo:42374:1,2020-07-01T14:09:00Z,28.8662,-88.0563,1.8,28.3,11111222
BP,ioos:station:wmo:42374:1,2020-07-01T14:29:00Z,28.8662,-88.0563,1.6,28.3,11111222
BP,ioos:station:wmo:42374:1,2020-07-01T14:49:00Z,28.8662,-88.0563,1.5,28.3,11111222
BP,ioos:station:wmo:42374:1,2020-07-01T15:09:00Z,28.8662,-88.0563,1.7,28.3,11111222
BP,ioos:station:wmo:42374:1,2020-07-01T15:29:00Z,28.8662,-88.0563,1.5,28.3,11111222
BP,ioos:station:wmo:42374:1,2020-07-01T16:44:00Z,28.8662,-88.0563,1.6,28.2,11111222
BP,ioos:station:wmo:42374:1,2020-07-01T17:04:00Z,28.8662,-88.0563,1.6,28.2,11111222
BP,ioos:station:wmo:42374:1,2020-07-01T17:24:00Z,28.8662,-88.0563,1.7,28.2,11111222
BP,ioos:station:wmo:42374:1,2020-07-01T17:44:00Z,28.8662,-88.0563,1.5,28.2,11111222
BP,ioos:station:wmo:42374:1,2020-07-01T18:04:00Z,28.8662,-88.0563,1.5,28.2,11111222
BP,ioos:station:wmo:42374:1,2020-07-01T18:24:00Z,28.8662,-88.0563,1.6,28.1,11111222
BP,ioos:station:wmo:42374:1,2020-07-01T18:44:00Z,28.8662,-88.0563,1.7,28.1,11111222
BP,ioos:station:wmo:42374:1,2020-07-01T19:04:00Z,28.8662,-88.0563,1.5,28.1,11111222
BP,ioos:station:wmo:42374:1,2020-07-01T19:24:00Z,28.8662,-88.0563,1.6,28.0,11111222
BP,ioos:station:wmo:42374:1,2020-07-01T19:44:00Z,28.8662,-88.0563,1.7,28.1,11111222
BP,ioos:station:wmo:42374:1,2020-07-01T20:04:00Z,28.8662,-88.0563,1.6,28.1,11111222
BP,ioos:station:wmo:42374:1,2020-07-01T20:24:00Z,28.8662,-88.0563,1.6,28.1,11111222
BP,ioos:station:wmo:42374:1,2020-07-01T20:44:00Z,28.8662,-88.0563,1.8,28.1,11111222
BP,ioos:station:wmo:42374:1,2020-07-01T21:04:00Z,28.8662,-88.0563,1.6,28.0,11111222
BP,ioos:station:wmo:42374:1,2020-07-01T21:24:00Z,28.8662,-88.0563,1.6,28.0,11111222
BP,ioos:station:wmo:42374:1,2020-07-01T21:44:00Z,28.8662,-88.0563,1.6,27.8,11111222
BP,ioos:station:wmo:42374:1,2020-07-01T22:04:00Z,28.8662,-88.0563,1.5,27.8,11111222
BP,ioos:station:wmo:42374:1,2020-07-01T22:24:00Z,28.8662,-88.0563,1.6,27.8,11111222
BP,ioos:station:wmo:42374:1,2020-07-01T22:44:00Z,28.8662,-88.0563,1.7,27.8,11111222
BP,ioos:station:wmo:42374:1,2020-07-01T23:04:00Z,28.8662,-88.0563,1.7,27.9,11111222
BP,ioos:station:wmo:42374:1,2020-07-01T23:24:00Z,28.8662,-88.0563,1.6,27.9,11111222
BP,ioos:station:wmo:42374:1,2020-07-01T23:44:00Z,28.8662,-88.0563,1.5,28.0,11111222
BP,ioos:station:wmo:42374:1,2020-07-02T00:04:00Z,28.8662,-88.0563,1.6,28.0,11111222
BP,ioos:station:wmo:42374:1,2020-07-02T00:24:00Z,28.8662,-88.0563,1.7,28.1,11111222
BP,ioos:station:wmo:42374:1,2020-07-02T00:44:00Z,28.8662,-88.0563,1.7,28.2,11111222
BP,ioos:station:wmo:42374:1,2020-07-02T01:04:00Z,28.8662,-88.0563,1.7,28.3,11111222
BP,ioos:station:wmo:42374:1,2020-07-02T01:24:00Z,28.8662,-88.0563,1.5,28.2,11111222
BP,ioos:station:wmo:42374:1,2020-07-02T01:44:00Z,28.8662,-88.0563,1.8,28.2,11111222
BP,ioos:station:wmo:42374:1,2020-07-02T02:04:00Z,28.8662,-88.0563,1.6,28.1,11111222
BP,ioos:station:wmo:42374:1,2020-07-02T02:24:00Z,28.8662,-88.0563,1.6,28.1,11111222
BP,ioos:station:wmo:42374:1,2020-07-02T02:44:00Z,28.8662,-88.0563,1.6,28.1,11111222
BP,ioos:station:wmo:42374:1,2020-07-02T03:04:00Z,28.8662,-88.0563,1.6,28.2,11111222
BP,ioos:station:wmo:42374:1,2020-07-02T03:24:00Z,28.8662,-88.0563,1.7,28.3,11111222
BP,ioos:station:wmo:42374:1,2020-07-02T03:44:00Z,28.8662,-88.0563,1.7,28.2,11111222
BP,ioos:station:wmo:42374:1,2020-07-02T04:04:00Z,28.8662,-88.0563,1.7,28.3,11111222
BP,ioos:station:wmo:42374:1,2020-07-02T04:24:00Z,28.8662,-88.0563,1.7,28.3,11111222
BP,ioos:station:wmo:42374:1,2020-07-02T04:44:00Z,28.8662,-88.0563,1.7,28.3,11111222
BP,ioos:station:wmo:42374:1,2020-07-02T05:04:00Z,28.8662,-88.0563,1.7,28.3,11111222
BP,ioos:station:wmo:42374:1,2020-07-02T05:24:00Z,28.8662,-88.0563,1.8,28.3,11111222
BP,ioos:station:wmo:42374:1,2020-07-02T05:44:00Z,28.8662,-88.0563,1.7,28.2,11111222
BP,ioos:station:wmo:42374:1,2020-07-02T06:04:00Z,28.8662,-88.0563,1.8,28.2,11111222
BP,ioos:station:wmo:42374:1,2020-07-02T06:24:00Z,28.8662,-88.0563,1.7,28.3,11111222
BP,ioos:station:wmo:42374:1,2020-07-02T06:44:00Z,28.8662,-88.0563,1.9,28.3,11111222
BP,ioos:station:wmo:42374:1,2020-07-02T07:04:00Z,28.8662,-88.0563,1.7,28.3,11111222
BP,ioos:station:wmo:42374:1,2020-07-02T07:24:00Z,28.8662,-88.0563,1.7,28.3,11111222
BP,ioos:station:wmo:42374:1,2020-07-02T07:44:00Z,28.8662,-88.0563,1.7,28.3,11111222
BP,ioos:station:wmo:42374:1,2020-07-02T08:04:00Z,28.8662,-88.0563,1.8,28.3,11111222
BP,ioos:station:wmo:42374:1,2020-07-02T08:24:00Z,28.8662,-88.0563,1.8,28.3,11111222
BP,ioos:station:wmo:42374:1,2020-07-02T08:44:00Z,28.8662,-88.0563,1.6,28.3,11111222
BP,ioos:station:wmo:42374:1,2020-07-02T09:04:00Z,28.8662,-88.0563,1.6,28.3,11111222
BP,ioos:station:wmo:42374:1,2020-07-02T09:24:00Z,28.8662,-88.0563,1.8,28.4,11111222
BP,ioos:station:wmo:42374:1,2020-07-02T09:44:00Z,28.8662,-88.0563,1.8,28.4,11111222
BP,ioos:station:wmo:42374:1,2020-07-02T10:04:00Z,28.8662,-88.0563,1.8,28.4,11111222
BP,ioos:station:wmo:42374:1,2020-07-02T10:24:00Z,28.8662,-88.0563,1.8,28.4,11111222
BP,ioos:station:wmo:42374:1,2020-07-02T10:44:00Z,28.8662,-88.0563,1.8,28.4,11111222
BP,ioos:station:wmo:42374:1,2020-07-02T11:04:00Z,28.8662,-88.0563,1.8,28.6,11111222
BP,ioos:station:wmo:42374:1,2020-07-02T11:24:00Z,28.8662,-88.0563,1.8,28.6,11111222
BP,ioos:station:wmo:42374:1,2020-07-02T11:44:00Z,28.8662,-88.0563,2.2,28.7,11111222
BP,ioos:station:wmo:42374:1,2020-07-02T12:04:00Z,28.8662,-88.0563,2.0,28.7,11111222
BP,ioos:station:wmo:42374:1,2020-07-02T12:24:00Z,28.8662,-88.0563,2.0,28.6,11111222
BP,ioos:station:wmo:42374:1,2020-07-02T12:44:00Z,28.8662,-88.0563,2.1,28.6,11111222
BP,ioos:station:wmo:42374:1,2020-07-02T13:04:00Z,28.8662,-88.0563,1.9,28.5,11111222
BP,ioos:station:wmo:42374:1,2020-07-02T13:24:00Z,28.8662,-88.0563,1.7,28.5,11111222
BP,ioos:station:wmo:42374:1,2020-07-02T13:44:00Z,28.8662,-88.0563,1.6,28.5,11111222
BP,ioos:station:wmo:42374:1,2020-07-02T14:04:00Z,28.8662,-88.0563,1.7,28.4,11111222
BP,ioos:station:wmo:42374:1,2020-07-02T14:24:00Z,28.8662,-88.0563,1.7,28.4,11111222
BP,ioos:station:wmo:42374:1,2020-07-02T14:44:00Z,28.8662,-88.0563,1.7,28.5,11111222
BP,ioos:station:wmo:42374:1,2020-07-02T15:04:00Z,28.8662,-88.0563,2.2,28.6,11111222
BP,ioos:station:wmo:42374:1,2020-07-02T15:24:00Z,28.8662,-88.0563,2.0,28.6,11111222
BP,ioos:station:wmo:42374:1,2020-07-02T15:44:00Z,28.8662,-88.0563,1.5,28.6,11111222
BP,ioos:station:wmo:42374:1,2020-07-02T16:04:00Z,28.8662,-88.0563,1.7,28.5,11111222
BP,ioos:station:wmo:42374:1,2020-07-02T16:24:00Z,28.8662,-88.0563,1.7,28.4,11111222
BP,ioos:station:wmo:42374:1,2020-07-02T16:44:00Z,28.8662,-88.0563,1.6,28.3,11111222
BP,ioos:station:wmo:42374:1,2020-07-02T17:04:00Z,28.8662,-88.0563,1.6,28.4,11111222
BP,ioos:station:wmo:42374:1,2020-07-02T17:24:00Z,28.8662,-88.0563,1.7,28.3,11111222
BP,ioos:station:wmo:42374:1,2020-07-02T17:44:00Z,28.8662,-88.0563,1.7,28.3,11111222
BP,ioos:station:wmo:42374:1,2020-07-02T18:04:00Z,28.8662,-88.0563,1.8,28.3,11111222
BP,ioos:station:wmo:42374:1,2020-07-02T18:24:00Z,28.8662,-88.0563,1.5,28.3,11111222
BP,ioos:station:wmo:42374:1,2020-07-02T18:44:00Z,28.8662,-88.0563,1.5,28.3,11111222
BP,ioos:station:wmo:42374:1,2020-07-02T19:04:00Z,28.8662,-88.0563,1.5,28.3,11111222
BP,ioos:station:wmo:42374:1,2020-07-02T19:24:00Z,28.8662,-88.0563,1.8,28.2,11111222
BP,ioos:station:wmo:42374:1,2020-07-02T19:44:00Z,28.8662,-88.0563,1.6,28.2,11111222
BP,ioos:station:wmo:42374:1,2020-07-02T20:04:00Z,28.8662,-88.0563,1.7,28.2,11111222
BP,ioos:station:wmo:42374:1,2020-07-02T20:24:00Z,28.8662,-88.0563,1.6,28.2,11111222
BP,ioos:station:wmo:42374:1,2020-07-02T20:44:00Z,28.8662,-88.0563,1.8,28.2,11111222
BP,ioos:station:wmo:42374:1,2020-07-02T21:04:00Z,28.8662,-88.0563,1.4,28.2,11111222
BP,ioos:station:wmo:42374:1,2020-07-02T21:24:00Z,28.8662,-88.0563,1.5,28.2,11111222
BP,ioos:station:wmo:42374:1,2020-07-02T21:44:00Z,28.8662,-88.0563,1.7,28.3,11111222
BP,ioos:station:wmo:42374:1,2020-07-02T22:04:00Z,28.8662,-88.0563,1.6,28.3,11111222
BP,ioos:station:wmo:42374:1,2020-07-02T22:24:00Z,28.8662,-88.0563,1.9,28.6,11111222
BP,ioos:station:wmo:42374:1,2020-07-02T22:44:00Z,28.8662,-88.0563,2.1,28.7,11111222
BP,ioos:station:wmo:42374:1,2020-07-02T23:04:00Z,28.8662,-88.0563,1.5,28.4,11111222
BP,ioos:station:wmo:42374:1,2020-07-02T23:24:00Z,28.8662,-88.0563,1.6,28.3,11111222
BP,ioos:station:wmo:42374:1,2020-07-02T23:44:00Z,28.8662,-88.0563,1.6,28.4,11111222
BP,ioos:station:wmo:42374:1,2020-07-03T00:04:00Z,28.8662,-88.0563,1.8,28.6,11111222
BP,ioos:station:wmo:42374:1,2020-07-03T00:24:00Z,28.8662,-88.0563,2.0,28.8,11111222
BP,ioos:station:wmo:42374:1,2020-07-03T00:44:00Z,28.8662,-88.0563,2.0,28.8,11111222
BP,ioos:station:wmo:42374:1,2020-07-03T01:04:00Z,28.8662,-88.0563,2.1,28.8,11111222
BP,ioos:station:wmo:42374:1,2020-07-03T01:24:00Z,28.8662,-88.0563,2.1,28.9,11111222
BP,ioos:station:wmo:42374:1,2020-07-03T01:44:00Z,28.8662,-88.0563,2.0,28.8,11111222
BP,ioos:station:wmo:42374:1,2020-07-03T02:04:00Z,28.8662,-88.0563,2.1,28.8,11111222
BP,ioos:station:wmo:42374:1,2020-07-03T02:24:00Z,28.8662,-88.0563,2.0,28.8,11111222
BP,ioos:station:wmo:42374:1,2020-07-03T02:44:00Z,28.8662,-88.0563,2.2,28.9,11111222
BP,ioos:station:wmo:42374:1,2020-07-03T03:04:00Z,28.8662,-88.0563,2.1,28.8,11111222
BP,ioos:station:wmo:42374:1,2020-07-03T03:24:00Z,28.8662,-88.0563,2.0,28.8,11111222
BP,ioos:station:wmo:42374:1,2020-07-03T03:44:00Z,28.8662,-88.0563,2.3,28.8,11111222
BP,ioos:station:wmo:42374:1,2020-07-03T04:04:00Z,28.8662,-88.0563,1.9,28.9,11111222
BP,ioos:station:wmo:42374:1,2020-07-03T04:24:00Z,28.8662,-88.0563,2.0,28.8,11111222
BP,ioos:station:wmo:42374:1,2020-07-03T04:44:00Z,28.8662,-88.0563,2.1,28.8,11111222
BP,ioos:station:wmo:42374:1,2020-07-03T05:04:00Z,28.8662,-88.0563,2.2,28.8,11111222
BP,ioos:station:wmo:42374:1,2020-07-03T05:24:00Z,28.8662,-88.0563,2.0,28.7,11111222
BP,ioos:station:wmo:42374:1,2020-07-03T05:44:00Z,28.8662,-88.0563,2.0,28.8,11111222
BP,ioos:station:wmo:42374:1,2020-07-03T06:04:00Z,28.8662,-88.0563,2.0,28.6,11111222
BP,ioos:station:wmo:42374:1,2020-07-03T07:04:00Z,28.8662,-88.0563,2.0,28.6,11111222
BP,ioos:station:wmo:42374:1,2020-07-03T07:44:00Z,28.8662,-88.0563,1.8,28.5,11111222
BP,ioos:station:wmo:42374:1,2020-07-03T08:04:00Z,28.8662,-88.0563,1.9,28.5,11111222
BP,ioos:station:wmo:42374:1,2020-07-03T08:24:00Z,28.8662,-88.0563,1.9,28.6,11111222
BP,ioos:station:wmo:42374:1,2020-07-03T08:44:00Z,28.8662,-88.0563,1.8,28.3,11111222
BP,ioos:station:wmo:42374:1,2020-07-03T09:04:00Z,28.8662,-88.0563,1.7,28.3,11111222
BP,ioos:station:wmo:42374:1,2020-07-03T09:24:00Z,28.8662,-88.0563,1.7,28.3,11111222
